This is the latest recevied weather packets stored in our database for station/object K4AMF. If no packets are shown the sender has not sent any weather packets the latest 10 day(s).
| Time | Temp. | Humidity | Pressure | Rain* | Wind** | Luminosity | Snow |
|---|---|---|---|---|---|---|---|
| 1777496306 | 32.78° C | 44% | 1007.2 hPa | 0 mm | - | 435 W/m² | - |
| 1777495091 | 32.78° C | 45% | 1007.5 hPa | 0 mm | - | 494 W/m² | - |
| 1777494788 | 32.78° C | 45% | 1007.8 hPa | 0 mm | - | 508 W/m² | - |
| 1777494485 | 32.22° C | 47% | 1007.8 hPa | 0 mm | - | 540 W/m² | - |
| 1777494182 | 32.22° C | 46% | 1008 hPa | 0 mm | - | 127 W/m² | - |
| 1777493275 | 33.33° C | 45% | 1008.3 hPa | 0 mm | - | 580 W/m² | - |
| 1777492668 | 32.78° C | 45% | 1008.6 hPa | 0 mm | - | 598 W/m² | - |
| 1777492367 | 32.78° C | 44% | 1008.7 hPa | 0 mm | - | 306 W/m² | - |
| 1777492065 | 32.78° C | 45% | 1009 hPa | 0 mm | - | 620 W/m² | - |
| 1777491458 | 32.78° C | 46% | 1008.8 hPa | 0 mm | - | 666 W/m² | - |
| 1777491156 | 32.78° C | 46% | 1008.7 hPa | 0 mm | - | 677 W/m² | - |
| 1777490851 | 32.22° C | 46% | 1008.8 hPa | 0 mm | - | 695 W/m² | - |
| 1777490547 | 31.67° C | 49% | 1009.1 hPa | 0 mm | - | 696 W/m² | - |
| 1777490244 | 32.22° C | 48% | 1009.2 hPa | 0 mm | - | 699 W/m² | - |
| 1777489942 | 31.67° C | 47% | 1009.3 hPa | 0 mm | - | 691 W/m² | - |
| 1777489033 | 31.67° C | 49% | 1009.8 hPa | 0 mm | - | 734 W/m² | - |
| 1777488730 | 31.67° C | 50% | 1009.9 hPa | 0 mm | - | 754 W/m² | - |
| 1777488427 | 31.11° C | 55% | 1009.7 hPa | 0 mm | - | 760 W/m² | - |
| 1777487521 | 31.11° C | 53% | 1010.4 hPa | 0 mm | - | 791 W/m² | - |
| 1777487218 | 31.67° C | 54% | 1010.3 hPa | 0 mm | - | 798 W/m² | - |
| 1777486914 | 31.11° C | 53% | 1010.1 hPa | 0 mm | - | 436 W/m² | - |
| 1777486308 | 31.11° C | 57% | 1010.3 hPa | 0 mm | - | 758 W/m² | - |
| 1777485702 | 30° C | 59% | 1010.8 hPa | 0 mm | - | 654 W/m² | - |
| 1777485093 | 30° C | 61% | 1011 hPa | 0 mm | - | 287 W/m² | - |
| 1777484185 | 30° C | 61% | 1011.1 hPa | 0 mm | - | 462 W/m² | - |
* Rain latest hour (hover to see other rain measurements)
** Current wind speed in m/s (hover to see current wind gust speed)